Regional Weather Roundup
Issued by NWS

Home | Current Version | Previous Version | Text Only | Print | Product List | Glossary Off
Versions: 1 2 3 4 5 6 7 8 9 10 11 12 13 14 15 16 17 18 19 20 21 22 23 24 25 26 27 28 29 30 31 32 33 34 35 36 37 38 39 40 41 42 43 44 45 46 47 48 49 50

000
ASUS43 KDMX 300307
RWRIA

WEATHER ROUNDUP FOR IOWA
NATIONAL WEATHER SERVICE DES MOINES IA
1000 PM CDT MON SEP 29 2014

NOTE: "FAIR" INDICATES FEW OR NO CLOUDS BELOW 12,000 FEET WITH NO
SIGNIFICANT WEATHER AND/OR OBSTRUCTIONS TO VISIBILITY.

* - THESE STATIONS ARE NOT NWS STATIONS...THUS NOT UNDER NWS
QUALITY CONTROL.  THEY ALSO DO NOT REPORT WEATHER SUCH
AS PRECIPITATION OR FOG.

IAZ001>003-012>014-020>022-031>034-043>046-300400-
   NORTHWEST IOWA

CITY           SKY/WX    TMP DP  RH WIND       PRES   REMARKS
CARROLL *      CLOUDY    63  59  88 NE9       30.00S
CHEROKEE *     CLEAR     59  59 100 E7        29.99F
DENISON *      CLOUDY    63  61  94 NE13      29.96F
LE MARS *        N/A     61  59  94 NE9G16    29.98S
ORANGE CITY *  CLEAR     61  55  82 E10       29.99S
SHELDON *      CLEAR     57  54  88 E12       30.00S
SIOUX CITY     CLEAR     64  59  83 E7        29.96S
SPENCER        PTCLDY    57  51  80 E12       30.03S
STORM LAKE *   PTCLDY    59  57  94 E10       30.01F
$$

IAZ055>058-069>071-079>083-090>094-300400-
   SOUTHWEST IOWA

CITY           SKY/WX    TMP DP  RH WIND       PRES   REMARKS
ATLANTIC *     MOCLDY    66  63  88 NE6       29.96S
AUDUBON *      CLEAR     64  57  77 NE7       30.00S
CLARINDA *     CLEAR     55  54  94 CALM      29.96S
COUNCIL BLFS *   N/A     68  59  73 SE5       29.93F
CRESTON *      CLEAR     66  57  72 S6        29.97S
HARLAN  *      CLEAR     66  63  88 N7        30.00S
LAMONI         CLEAR     72  56  57 SE6       29.97S
RED OAK *      CLEAR     61  57  88 CALM      29.95S HAZE
SHENANDOAH *   CLEAR     64  55  72 SE5       29.94F
$$

IAZ047>049-059>061-072>074-084-300400-
   CENTRAL IOWA

CITY           SKY/WX    TMP DP  RH WIND       PRES   REMARKS
AMES           PTCLDY    62  58  86 NE8       30.00S
ANKENY *       MOCLDY    64  61  88 NE9G18    29.98S
CHARITON *     PTCLDY    66  63  88 SE3       29.97S
DES MOINES     CLEAR     69  61  75 NE12      29.98R
GRINNELL*      CLEAR     64  59  82 NE6       30.00S
KNOXVILLE *    CLEAR     70  61  73 NE10      29.96S
MARSHALLTOWN   CLEAR     61  56  83 NE12      30.01R
PELLA *        CLEAR     68  61  77 NE7       29.99R
PERRY *          N/A     64  61  88 NE7       29.99S
$$

IAZ004>006-015-016-023>025-035-036-300400-
   NORTH CENTRAL IOWA

CITY           SKY/WX    TMP DP  RH WIND       PRES   REMARKS
ALGONA *       PTCLDY    55  52  88 NE12      30.04S
CLARION *      PTCLDY    57  52  82 NE15      30.03S
ESTHERVILLE    CLEAR     53  49  86 NE12      30.04S
FORT DODGE *   CLEAR     59  54  82 NE7       30.02S
MASON CITY     CLEAR     53  49  86 NE7       30.06F
FOREST CITY *  CLEAR     54  50  87 E6        30.05S
IOWA FALLS *     N/A     57  52  82 NE13G18   30.04R
$$

IAZ007>011-017>019-026>030-037>042-050>054-066-300400-
   NORTHEAST IOWA

CITY           SKY/WX    TMP DP  RH WIND       PRES   REMARKS
CHARLES CITY * CLEAR     54  50  87 NE9       30.05F
CLINTON *      PTCLDY    63  55  77 NE16      30.02R
DECORAH *      CLOUDY    54  50  87 NE7       30.05S
MONTICELLO *   CLOUDY    61  55  82 NE7       30.01R
OELWEIN *      CLOUDY    54  50  87 NE12G18   30.04S
WATERLOO       MOCLDY    56  51  84 NE12      30.02S
$$

IAZ064-065-067-068-078-300400-
   EAST CENTRAL IOWA

CITY           SKY/WX    TMP DP  RH WIND       PRES   REMARKS
IOWA CITY      CLEAR     67  61  81 N8        29.98R
MT. PLEASANT * CLEAR     66  59  77 W3        29.95S
MUSCATINE *    PTCLDY    68  61  77 NW7       29.95R
$$

IAZ062-063-075>077-085>089-095>099-300400-
   SOUTHEAST IOWA

CITY           SKY/WX    TMP DP  RH WIND       PRES   REMARKS
BURLINGTON     CLEAR     64  60  87 W3        29.95S
FAIRFIELD *    CLEAR     66  59  77 W3        29.96S
FORT MADISON * CLEAR     70  57  64 CALM      29.96F
KEOKUK *       CLEAR     66  63  88 CALM      29.95S
OSKALOOSA *      N/A     66  61  82 NE8       29.98R
CENTERVILLE *  CLEAR     61  61 100 CALM      29.98F
OTTUMWA        CLEAR     66  59  78 N13       29.97R
WASHINGTON *   PTCLDY    70  63  78 N10       29.96R
$$

ABBREVIATIONS USED IN REMARKS
   TC - TEMPERATURES IN CELSIUS
  WCI - WIND CHILL INDEX
   HX - HEAT INDEX
  VSB - VISIBILITY
$$




USA.gov is the U.S. government's official web portal to all federal, state and local government web resources and services.